OneWeb SL0650

operational
NORAD ID: 55813 Int'l Des: 2023-029 Owner: ONEWEBN Country: UK Constellation: oneweb
LEOCIRCULARPOLARONEWEB_TYPE

关于 OneWeb SL0650

正在加载描述...

实时位置

正在加载3D地球...

即将过境

高度历史

Altitude vs Time

uPlot chart will show altitude changes over time

两行轨道根数

1 55813U 23029T 26034.18525242 -.00000126 00000-0 -34683-3 0 9990
2 55813 87.9246 331.6525 0001358 87.2597 272.8691 13.19722109141220
Epoch: Feb 3, 2026 • Age: 10 hours

当前状态

高度 1198.3 km
速度 7.26 km/s
星下点 80.47°N, 154.73°E
发射日期 Mar 9, 2023
运行时间 2.9 years
类型 internet

技术详情

分类 Payload
质量 148.00 kg
干质量 140.00 kg
总质量 148.00 kg
长度 1.30 m
直径 1.00 m
跨度 5.00 m
形状 Trapezoid+2 pan
制造商 ONEWUS
平台类型 ARROW
阶段状态 In Orbit
所有者/国家 ONEWEBN/UK

大型星座

Loading constellations...